This is the latest recevied weather packets stored in our database for station/object KV9E. If no packets are shown the sender has not sent any weather packets the latest 1 day(s).
| Time | Temp. | Humidity | Pressure | Rain* | Wind** | Luminosity | Snow |
|---|---|---|---|---|---|---|---|
| 1777997173 | 18.33° C | 67% | 1013.8 hPa | 0 mm | 0.89 m/s, 122° | 197 W/m² | - |
| 1777996870 | 18.33° C | 71% | 1013.8 hPa | 0 mm | 0 m/s | 419 W/m² | - |
| 1777996566 | 17.78° C | 68% | 1013.5 hPa | 0 mm | 0.89 m/s, 200° | 185 W/m² | - |
| 1777996263 | 17.78° C | 71% | 1013.5 hPa | 0 mm | 0.45 m/s, 153° | 217 W/m² | - |
| 1777995959 | 17.78° C | 70% | 1013.5 hPa | 0 mm | 0 m/s | 216 W/m² | - |
| 1777995655 | 17.78° C | 71% | 1013.6 hPa | 0 mm | 0 m/s | 199 W/m² | - |
| 1777995352 | 17.22° C | 71% | 1013.4 hPa | 0 mm | 0 m/s | 212 W/m² | - |
| 1777995050 | 17.22° C | 70% | 1013.6 hPa | 0 mm | 0 m/s | 211 W/m² | - |
| 1777994746 | 17.22° C | 70% | 1013.4 hPa | 0 mm | 0 m/s | 195 W/m² | - |
| 1777994442 | 17.22° C | 70% | 1013.6 hPa | 0 mm | 0.45 m/s, 294° | 190 W/m² | - |
| 1777994137 | 17.22° C | 71% | 1013.5 hPa | 0 mm | 0 m/s | 181 W/m² | - |
| 1777993835 | 17.22° C | 70% | 1013.5 hPa | 0 mm | 0 m/s | 187 W/m² | - |
| 1777993531 | 16.67° C | 70% | 1013.6 hPa | 0 mm | 0 m/s | 180 W/m² | - |
| 1777993227 | 16.67° C | 70% | 1013.3 hPa | 0 mm | 0.45 m/s, 156° | 167 W/m² | - |
| 1777992924 | 16.67° C | 70% | 1013.5 hPa | 0 mm | 0 m/s | 183 W/m² | - |
| 1777992622 | 16.67° C | 71% | 1013.5 hPa | 0 mm | 0 m/s | 188 W/m² | - |
| 1777992319 | 16.67° C | 70% | 1013.4 hPa | 0 mm | 0 m/s | 201 W/m² | - |
| 1777992016 | 16.67° C | 69% | 1013.3 hPa | 0 mm | 0 m/s | 182 W/m² | - |
| 1777991714 | 16.11° C | 70% | 1013 hPa | 0 mm | 0 m/s | 169 W/m² | - |
| 1777991411 | 16.11° C | 69% | 1013.2 hPa | 0 mm | 0.45 m/s, 174° | 168 W/m² | - |
| 1777991108 | 16.11° C | 69% | 1013.1 hPa | 0 mm | 0 m/s | 155 W/m² | - |
| 1777990805 | 16.11° C | 69% | 1012.8 hPa | 0 mm | 0 m/s | 168 W/m² | - |
| 1777990502 | 16.11° C | 67% | 1013.1 hPa | 0 mm | 1.79 m/s, 142° | 176 W/m² | - |
| 1777990199 | 16.11° C | 69% | 1013.1 hPa | 0 mm | 0.89 m/s, 189° | 171 W/m² | - |
| 1777989896 | 16.11° C | 69% | 1013 hPa | 0 mm | 0 m/s | 170 W/m² | - |
* Rain latest hour (hover to see other rain measurements)
** Current wind speed in m/s (hover to see current wind gust speed)